Weather in Sura

Russia / Arkhangel'skaya Oblast'     63°34′26″N   45°38′03″E
temp.,
°C
wind,
m/s
gust,
m/s
humid.,
%
clouds,
%
prec.,
mm/h
press.,
hPa
HPBL,
m
11 may, tue
tue1100:00+5s3116643 0.0 1025218
03:00+7s41459100 0.0 1025478
06:00+7ssw41372100 0.2 1024590
09:00+9sw41179100 0.4 1025563
12:00+9ssw41182100 0.1 1025435
15:00+10sse2484100 0.1 1025114
18:00+16ssw3116698 0.0 1023518
21:00+14sw41372100 0.0 1024329
12 may, wed
wed1200:00+13sw4147769 0.0 1024392
03:00+12sw41580100 0.0 1024410
06:00+14wsw41372100 0.0 1025578
09:00+19wsw5952100 0.0 1025901
12:00+23wsw584044 0.0 10241646
15:00+24wsw5734100 0.0 10241971
18:00+23w364082 0.0 1024580
21:00+16sw226170 0.0 102511
13 may, thu
thu1300:00+14ssw227225 0.0 102515
03:00+13ssw23805 0.0 102544
06:00+16ssw376419 0.0 1025216
09:00+21ssw46420 0.0 1024809
12:00+24sw47270 0.0 10231733
15:00+25sw57315 0.0 10212461
18:00+21ssw495172 0.0 1020604
21:00+17ssw2568100 0.0 102090
14 may, fri
fri1400:00+16sw227310 0.1 101915
03:00+14ssw278061 0.2 1018144
06:00+17ssw366596 0.0 1018255
09:00+18ssw3669100 0.4 1017474
12:00+22ssw564996 0.4 10151914
15:00+17wsw488075 2.6 1015634
18:00+19wsw49670 0.7 10141241
21:00+15sw23815 0.8 101542
15 may, sat
sat1500:00+13ssw2285100 0.0 101522
03:00+12sw228599 0.0 101524
06:00+15sw26689 0.0 1015223
09:00+20wsw3547100 0.0 10141259
12:00+22wsw3541100 0.0 10141995
15:00+22wsw344196 0.0 10132077
18:00+17ne1367100 0.0 1011116
21:00+16e2573100 0.0 1009123